Waarnemingen

Advertentie
Mijn weer
Gallivare, Zweden (2049): temperatuur & dauwpunt: 01.08.2020 22:00:00 - 07.08.2020 22:00:00 (CEST)Gallivare, Zweden (2049): windsnelheid & windstoten: 01.08.2020 22:00:00 - 07.08.2020 22:00:00 (CEST)Gallivare, Zweden (2049): windrichting: 01.08.2020 22:00:00 - 07.08.2020 22:00:00 (CEST)Gallivare, Zweden (2049): luchtdruk: 01.08.2020 22:00:00 - 07.08.2020 22:00:00 (CEST)Gallivare, Zweden (2049): zicht: 01.08.2020 22:00:00 - 07.08.2020 22:00:00 (CEST)Gallivare, Zweden (2049): neerslag: 01.08.2020 22:00:00 - 07.08.2020 22:00:00 (CEST)
Datum & Tijd tt [°C] td [°C] ff [km/u] ff [kn] fx [km/u] fx [kn] dd ppp [hPa] vv [km] rr [mm]
07.08.2020 22:00:00 13,2 11,6 0 0 3 2 N 1022,1 40 0,0
07.08.2020 21:00:00 16,0 13,1 2 1 6 4 ZZW 1021,5 46 0,0
07.08.2020 20:00:00 18,6 11,9 4 2 10 5 W 1021,0 50 0,0
07.08.2020 19:00:00 18,9 11,7 5 3 8 5 W 1021,1 49 0,0
07.08.2020 18:00:00 20,1 12,1 4 2 15 8 W 1021,0 49 0,0
07.08.2020 17:00:00 20,3 11,2 7 4 16 9 W 1021,0 41 0,0
07.08.2020 16:00:00 19,8 11,6 6 3 19 11 WZW 1021,2 44 0,0
07.08.2020 15:00:00 19,8 11,6 8 4 14 8 W 1021,2 50 0,0
07.08.2020 14:00:00 19,7 12,7 4 2 13 7 W 1021,4 39 0,0
07.08.2020 13:00:00 19,0 12,3 5 3 11 6 NW 1021,4 38 0,0
07.08.2020 12:00:00 18,7 12,0 5 3 14 7 W 1021,4 50 0,0
07.08.2020 11:00:00 17,2 11,0 6 3 16 8 W 1021,7 44 0,0
07.08.2020 10:00:00 18,2 11,3 8 4 17 9 WZW 1021,4 48 0,0
07.08.2020 09:00:00 17,1 11,6 8 5 19 10 W 1021,4 38 0,0
07.08.2020 08:00:00 14,9 11,1 5 3 12 6 W 1021,6 46 0,0
07.08.2020 07:00:00 12,7 10,6 5 3 15 8 WNW 1021,6 50 0,0
07.08.2020 06:00:00 12,6 10,5 9 5 15 8 W 1021,4 48 0,0
07.08.2020 05:00:00 12,0 10,3 7 4 13 7 NNW 1021,2 50 0,0
07.08.2020 04:00:00 11,5 10,2 6 3 11 6 NW 1020,8 50 0,0
07.08.2020 03:00:00 12,0 11,1 6 3 9 5 W 1020,4 50 0,0
07.08.2020 02:00:00 12,1 10,5 2 1 7 4 W 1020,1 50 0,0
07.08.2020 01:00:00 12,7 10,8 4 2 10 5 W 1019,6 44 0,0
07.08.2020 00:00:00 13,1 11,0 5 3 10 5 W 1019,2 49 0,0
06.08.2020 23:00:00 13,6 10,7 5 3 19 10 WNW 1018,8 36 0,0
06.08.2020 22:00:00 14,8 10,6 8 4 15 8 W 1018,0 50 0,0
06.08.2020 21:00:00 15,7 10,7 9 5 16 9 W 1017,3 44 0,0
06.08.2020 20:00:00 16,5 9,9 7 4 19 11 WZW 1016,6 50 0,0
06.08.2020 19:00:00 17,8 9,4 10 5 29 15 WZW 1016,3 31 0,0
06.08.2020 18:00:00 19,0 9,8 14 7 27 14 WZW 1015,9 46 0,0
06.08.2020 17:00:00 19,0 8,8 11 6 25 13 ZW 1015,4 39 0,0
06.08.2020 16:00:00 20,1 9,1 13 7 26 14 ZW 1015,0 45 0,0
06.08.2020 15:00:00 19,9 10,0 9 5 23 13 ZW 1014,6 36 0,0
06.08.2020 14:00:00 20,5 10,0 11 6 24 13 ZW 1014,4 37 0,0
06.08.2020 13:00:00 20,3 10,4 11 6 21 12 ZZW 1014,0 43 0,0
06.08.2020 12:00:00 19,7 8,4 10 5 23 12 ZZW 1013,7 31 0,0
06.08.2020 11:00:00 19,5 9,8 6 4 18 10 ZZW 1013,3 38 0,0
06.08.2020 10:00:00 18,5 8,5 4 2 11 6 OZO 1013,1 37 0,0
06.08.2020 09:00:00 15,8 10,1 0 0 5 3 N 1013,3 39 0,0
06.08.2020 08:00:00 13,7 10,7 0 0 5 3 N 1013,2 43 0,0
06.08.2020 07:00:00 10,3 9,5 0 0 7 4 N 1013,2 45 0,0
06.08.2020 06:00:00 7,7 7,6 0 0 6 3 N 1013,1 48 0,0
06.08.2020 05:00:00 5,8 5,6 3 2 7 4 W 1013,1 - 0,0
06.08.2020 04:00:00 4,7 4,4 3 1 11 6 W 1012,8 17 0,0
06.08.2020 03:00:00 4,9 4,6 3 1 6 3 W 1012,3 14 0,0
06.08.2020 02:00:00 5,8 5,5 0 0 6 3 N 1011,8 20 0,0
06.08.2020 01:00:00 6,0 5,6 3 1 6 3 W 1011,3 22 0,0
06.08.2020 00:00:00 7,4 7,0 4 2 7 4 W 1010,7 21 0,0
05.08.2020 23:00:00 8,3 7,7 0 0 6 3 N 1010,1 30 0,0
05.08.2020 22:00:00 9,7 8,9 0 0 4 2 N 1009,6 44 0,0
05.08.2020 21:00:00 11,9 9,8 0 0 5 3 N 1008,7 50 0,0
05.08.2020 20:00:00 13,2 9,1 3 1 13 7 ONO 1008,2 50 0,0
05.08.2020 19:00:00 13,4 9,8 7 4 27 15 W 1007,7 50 0,0
05.08.2020 18:00:00 14,1 7,6 14 8 30 16 W 1007,4 41 0,0
05.08.2020 17:00:00 17,2 8,3 9 5 18 10 W 1006,3 41 0,0
05.08.2020 16:00:00 18,0 10,4 9 5 19 11 W 1005,9 21 0,0
05.08.2020 15:00:00 19,3 8,3 12 7 23 12 W 1005,4 46 0,0
05.08.2020 14:00:00 16,7 8,4 5 3 24 13 WZW 1005,6 50 0,0
05.08.2020 13:00:00 17,9 8,2 10 5 23 12 WNW 1005,3 40 0,0
05.08.2020 12:00:00 16,5 8,7 10 5 18 10 NW 1005,4 40 0,0
05.08.2020 11:00:00 17,5 9,4 7 4 13 7 W 1005,2 33 0,0
05.08.2020 10:00:00 15,1 8,8 8 4 18 10 WNW 1005,6 44 0,0
05.08.2020 09:00:00 14,0 8,8 8 5 16 8 WNW 1005,7 44 0,0
05.08.2020 08:00:00 12,7 9,0 4 2 14 7 NNW 1005,8 50 0,0
05.08.2020 07:00:00 11,1 10,2 5 3 9 5 WNW 1005,9 42 0,0
05.08.2020 06:00:00 10,9 9,7 6 4 10 6 W 1005,9 49 0,0
05.08.2020 05:00:00 10,3 9,8 5 3 11 6 W 1005,8 39 0,0
05.08.2020 04:00:00 9,9 9,6 5 3 11 6 WNW 1005,6 28 0,0
05.08.2020 03:00:00 10,7 10,2 6 4 11 6 W 1005,3 30 0,0
05.08.2020 02:00:00 11,2 10,7 7 4 12 6 W 1004,9 29 0,0
05.08.2020 01:00:00 10,8 10,5 4 2 9 5 WNW 1004,8 11 0,0
05.08.2020 00:00:00 11,0 10,7 3 1 8 5 WNW 1004,6 8 0,0
04.08.2020 23:00:00 11,4 10,9 5 3 8 4 W 1004,3 16 0,1
04.08.2020 22:00:00 12,6 11,5 5 3 9 5 W 1004,1 9 0,2
04.08.2020 21:00:00 13,5 10,7 2 1 5 3 NW 1003,6 36 0,0
04.08.2020 20:00:00 14,8 9,6 4 2 12 7 NNW 1003,1 47 0,0
04.08.2020 19:00:00 15,5 10,3 7 4 12 7 WNW 1002,8 41 0,0
04.08.2020 18:00:00 15,4 10,2 8 4 13 7 W 1002,5 39 0,0
04.08.2020 17:00:00 16,4 8,4 4 2 9 5 ONO 1002,2 40 0,0
04.08.2020 16:00:00 16,1 9,5 4 2 9 5 ONO 1002,3 43 0,0
04.08.2020 15:00:00 16,9 9,3 3 2 13 7 NO 1002,1 37 0,1
04.08.2020 14:00:00 15,6 12,7 2 1 7 4 ZW 1002,5 13 0,0
04.08.2020 13:00:00 15,5 10,9 4 2 6 3 W 1002,1 45 0,0
04.08.2020 12:00:00 16,2 9,8 3 2 8 4 ZZO 1002,1 38 0,0
04.08.2020 11:00:00 15,5 10,5 3 1 7 4 W 1002,3 41 0,0
04.08.2020 10:00:00 14,7 10,3 4 2 8 4 NNW 1002,3 31 0,0
04.08.2020 09:00:00 13,4 10,2 0 0 3 2 N 1002,5 29 0,0
04.08.2020 08:00:00 11,5 9,4 2 1 5 3 ONO 1002,6 43 0,0
04.08.2020 07:00:00 10,9 9,0 0 0 4 2 N 1002,7 19 0,0
04.08.2020 06:00:00 10,6 9,7 0 0 5 3 N 1002,7 18 0,0
04.08.2020 05:00:00 10,3 9,8 0 0 4 2 N 1002,9 17 0,1
04.08.2020 04:00:00 8,4 8,3 0 0 5 3 N 1003,4 12 0,3
04.08.2020 03:00:00 5,7 5,4 2 1 5 3 WNW 1004,0 14 0,0
04.08.2020 02:00:00 5,9 5,3 2 1 6 4 W 1003,9 11 0,0
04.08.2020 01:00:00 7,8 7,0 2 1 7 4 Z 1003,5 19 0,0
04.08.2020 00:00:00 9,4 7,5 3 2 9 5 O 1003,1 37 0,0
03.08.2020 23:00:00 9,4 7,9 3 1 10 6 NO 1003,0 34 0,0
03.08.2020 22:00:00 11,0 8,4 0 0 7 4 N 1002,6 36 0,0
03.08.2020 21:00:00 12,2 9,0 3 1 6 3 ZZW 1002,4 31 0,0
03.08.2020 20:00:00 14,3 9,5 3 2 11 6 Z 1002,0 39 0,0
03.08.2020 19:00:00 17,3 7,1 5 3 16 9 OZO 1001,4 42 0,0
03.08.2020 18:00:00 17,2 7,0 6 4 17 9 ZO 1001,6 39 0,0
03.08.2020 17:00:00 18,9 7,4 7 4 16 9 OZO 1001,5 47 0,0
03.08.2020 16:00:00 20,3 7,6 7 4 19 10 Z 1001,6 34 0,0
03.08.2020 15:00:00 18,3 7,4 5 3 13 7 ZZO 1002,3 37 0,0
03.08.2020 14:00:00 19,3 8,0 8 5 19 10 ZZO 1002,4 27 0,0
03.08.2020 13:00:00 16,3 8,5 3 2 11 6 ZO 1003,3 31 0,0
03.08.2020 12:00:00 16,3 7,8 4 2 9 5 ZW 1003,6 33 0,0
03.08.2020 11:00:00 14,9 9,6 0 0 8 5 N 1004,0 33 0,0
03.08.2020 10:00:00 15,2 6,2 2 1 8 4 ZO 1004,3 35 0,0
03.08.2020 09:00:00 13,4 9,6 4 2 7 4 W 1005,1 29 0,0
03.08.2020 08:00:00 12,7 8,2 0 0 5 3 N 1005,6 29 0,0
03.08.2020 07:00:00 11,1 8,0 0 0 5 3 N 1006,3 30 0,0
03.08.2020 06:00:00 9,5 7,1 4 2 7 4 NO 1006,7 31 0,0
03.08.2020 05:00:00 10,3 7,3 4 2 6 4 ONO 1006,9 33 0,0
03.08.2020 04:00:00 8,0 6,6 4 2 10 5 NO 1007,7 21 0,0
03.08.2020 03:00:00 8,5 6,6 2 1 9 5 NO 1008,0 29 0,0
03.08.2020 02:00:00 9,5 6,8 4 2 10 5 O 1008,1 37 0,0
03.08.2020 01:00:00 10,2 7,1 4 2 10 5 O 1008,3 41 0,0
03.08.2020 00:00:00 11,0 7,3 6 3 9 5 O 1008,3 37 0,0
02.08.2020 23:00:00 12,0 7,3 5 3 9 5 O 1008,3 44 0,0
02.08.2020 22:00:00 12,8 6,6 4 2 10 6 ZO 1008,3 48 0,0
02.08.2020 21:00:00 13,3 6,9 4 2 17 9 OZO 1008,3 44 0,0
02.08.2020 20:00:00 15,3 6,6 8 5 18 10 OZO 1007,9 44 0,0
02.08.2020 19:00:00 16,0 7,0 7 4 21 12 OZO 1008,0 46 0,0
02.08.2020 18:00:00 16,6 8,3 7 4 27 15 ZO 1008,3 44 0,0
02.08.2020 17:00:00 18,0 9,5 8 4 21 11 ZO 1008,3 41 0,0
02.08.2020 16:00:00 17,6 9,5 11 6 22 12 O 1008,9 38 0,0
02.08.2020 15:00:00 18,1 10,5 9 5 23 12 OZO 1009,1 37 0,0
02.08.2020 14:00:00 16,8 10,4 6 4 19 10 OZO 1009,7 31 0,0
02.08.2020 13:00:00 16,9 9,6 9 5 19 10 ZO 1010,1 29 0,0
02.08.2020 12:00:00 15,6 9,9 8 4 22 12 O 1010,6 33 0,0
02.08.2020 11:00:00 14,3 9,6 9 5 14 8 O 1011,1 36 0,0
02.08.2020 10:00:00 14,5 10,5 6 3 12 7 O 1011,4 35 0,0
02.08.2020 09:00:00 13,7 10,5 6 3 11 6 O 1011,7 38 0,0
02.08.2020 08:00:00 13,1 10,8 4 2 11 6 O 1012,0 36 0,0
02.08.2020 07:00:00 12,6 11,7 2 1 4 2 OZO 1012,1 29 0,0
02.08.2020 06:00:00 9,9 9,7 3 1 8 4 NW 1012,9 10 0,0
02.08.2020 05:00:00 8,1 7,9 6 3 9 5 W 1013,3 6 0,0
02.08.2020 04:00:00 6,4 6,1 4 2 6 3 W 1014,0 6 0,0
02.08.2020 03:00:00 7,3 7,0 0 0 6 3 N 1014,0 9 0,0
02.08.2020 02:00:00 7,8 7,5 3 2 6 4 WNW 1014,2 7 0,0
02.08.2020 01:00:00 8,5 8,2 0 0 5 3 N 1014,2 - 0,0
02.08.2020 00:00:00 9,6 9,1 0 0 7 4 N 1014,0 10 0,0
01.08.2020 23:00:00 10,6 9,7 0 0 4 2 N 1013,9 16 0,0
01.08.2020 22:00:00 13,0 10,2 2 1 14 8 O 1013,5 44 0,0

tt = temperatuur
td = dauwpunt
ff = windsnelheid
fx = windstoten
dd = windrichting
ppp = luchtdruk
vv = zicht
rr = neerslag

Weerstations in de omgeving